Location: Jaworzyna Śląska
(50.9128°N, 16.4318°E)
Time: 02:49:10
(UTC+01:00)

ISS - Pass Details

Date: 02 February 2019
Orbit: 403 x 411 km, 51.6° (Epoch: 17 February)

Event Time Altitude Azimuth Distance (km) Brightness Sun altitude
Rises 19:41:00 0° 285° (WNW) 2,341 1.3 -27.5°
Reaches altitude 10° 19:43:07 10° 280° (W) 1,479 0.0 -27.8°
Enters shadow 19:44:18 20° 272° (W) 1,031 -1.1 -28.0°
